Regional Weather Roundup
Issued by NWS Sterling, VA

Home | Current Version | Previous Version | Graphics & Text | Print | Product List | Glossary On
Versions: 1 2 3 4 5 6 7 8 9 10 11 12 13 14 15 16 17 18 19 20 21 22 23 24 25 26 27 28 29 30 31 32 33 34 35 36 37 38 39 40 41 42 43 44 45 46 47 48 49 50
837
ASUS41 KLWX 061710
RWRLWX

REGIONAL WEATHER ROUNDUP
NATIONAL WEATHER SERVICE BALTIMORE MD/WASHINGTON DC
1200 PM EST SAT FEB 06 2016

Note: "FAIR" indicates few or no clouds below 12,000 feet
with no significant weather and/or obstructions to visibility.
 TC=TEMPERATURE CELSIUS

 * =Non NWS site. Station does not report precipitation (e.g. rain,
    snow, etc.), thunder, or fog.

DCZ001-MDZ009-015-VAZ040>042-051-053>054-061800-
WASHINGTON METRO

CITY           SKY/WX    TMP DP  RH WIND       PRES   REMARKS
WASHINGTON NAT PTSUNNY   41  24  51 S10       30.44F
DULLES         PTSUNNY   38  20  48 S14       30.41F
ANDREWS AFB    CLOUDY    41  22  46 S5        30.41F
FT BELVOIR     FAIR      40  20  44 VRB3      30.43F
QUANTICO       FAIR      39  25  57 S6        30.45F
COLLEGE PARK*  FAIR      39  21  48 S6        30.42F
LEESBURG*      FAIR      41  25  52 S13       30.40F
MANASSAS*      SUNNY     37  21  52 S6        30.43F
GAITHERSBURG*  MOSUNNY   41  19  42 SW8       30.43F

$$

MDZ006>007-011-014-061800-
BALTIMORE METRO

CITY           SKY/WX    TMP DP  RH WIND       PRES   REMARKS
BWI AIRPORT    CLOUDY    40  19  43 S8        30.41F
MD SCIENCE CTR   N/A     41  19  41 MISG      30.43F
MARTIN STATE   PTSUNNY   39  27  60 SE12      30.45F
ANNAPOLIS      CLOUDY    40  23  50 SE9       30.43F
FORT MEADE*    PTSUNNY   39  21  48 SW9       30.44F

$$

MDZ012-015-019>023-061800-
MARYLAND EASTERN SHORE

CITY           SKY/WX    TMP DP  RH WIND       PRES   REMARKS
OCEAN CITY     MOSUNNY   39  28  64 SE6       30.45F
SALISBURY      MOSUNNY   41  25  53 S7        30.44F
BAY BRIDGE AP*   N/A     41  19  42 CALM      30.43F
CAMBRIDGE*     MOSUNNY   39  21  48 SW7       30.43F
EASTON*        PTSUNNY   39  21  48 CALM      30.48F

$$

MDZ017>025-061800-
SOUTHERN MARYLAND

CITY           SKY/WX    TMP DP  RH WIND       PRES   REMARKS
PATUXENT RIVER CLOUDY    39  24  55 SE8       30.44F
ST INIGOES     MOSUNNY   41  24  51 SE3       30.44F
LEONARDTOWN*   MOSUNNY   41  19  42 CALM      30.45F

$$

MDZ003>005-061800-
NORTH CENTRAL MARYLAND

CITY           SKY/WX    TMP DP  RH WIND       PRES   REMARKS
FREDERICK*     NOT AVBL
HAGERSTOWN APT MOSUNNY   39  16  39 SW10      30.35F
WESTMINSTER*   MOSUNNY   39  27  60 SW13      30.36F

$$

MDZ501>502-061800-
WESTERN MARYLAND

CITY           SKY/WX    TMP DP  RH WIND       PRES   REMARKS
OAKLAND*       SUNNY     32  16  51 SW7       30.22F
CUMBERLAND*    SUNNY     39  21  48 CALM      30.36F

$$

VAZ025>031-061800-
SHENANDOAH VALLEY

CITY           SKY/WX    TMP DP  RH WIND       PRES   REMARKS
WINCHESTER*    FAIR      43  21  42 S7        30.35F
FRONT ROYAL*   FAIR      41  16  36 S7        30.35F
LURAY*         FAIR      37  18  44 S12       30.36F
NEW MARKET*    FAIR      39  20  45 S10       30.35F
STAUNTON*      FAIR      42  19  40 S7        30.38F
WAYNESBORO*    FAIR      38  11  33 S3        30.35F

$$

WVZ021-048>050-054>055-061800-
EASTERN WEST VIRGINIA PANHANDLE

CITY           SKY/WX    TMP DP  RH WIND       PRES   REMARKS
MARTINSBURG    FAIR      40  17  39 S10       30.36F
PETERSBURG*    FAIR      42  18  37 CALM      30.33F

$$

VAZ036>039-050-061800-
CENTRAL FOOTHILLS

CITY           SKY/WX    TMP DP  RH WIND       PRES   REMARKS
CHARLOTTESVILL FAIR      41  18  39 S12       30.41F
CULPEPER*      FAIR      39  20  46 SW8       30.43F
ORANGE*        FAIR      41  19  42 S3        30.43F
GORDONSVILLE*  FAIR      39  20  46 SW9       30.41F
WARRENTON*     FAIR      40  25  53 S9        30.41F

$$

VAZ055>057-061800-
NORTH AND CENTRAL PIEDMONT

CITY           SKY/WX    TMP DP  RH WIND       PRES   REMARKS
FREDERICKSBRG* FAIR      41  20  43 SW8       30.43F
STAFFORD*      FAIR      39  17  41 S5        30.47F

$$

NCZ024-NYZ072-PAZ021-071-VAZ022-071-061800-
OTHER REGIONAL OBSERVATIONS

CITY           SKY/WX    TMP DP  RH WIND       PRES   REMARKS
NEW YORK CITY  MOSUNNY   38  20  48 VRB6      30.41F
PHILADELPHIA   PTSUNNY   39  17  41 SW10      30.42F
PITTSBURGH     MOSUNNY   39  18  42 SW7G17    30.27F
ROANOKE        PTSUNNY   37  18  46 SE5       30.41F
RICHMOND       PTSUNNY   40  20  44 CALM      30.44F
RALEIGH        CLOUDY    43  19  38 CALM      30.43F

$$

ANZ530>537-061800-
MARINE OBSERVATIONS

STATION/POSITION TIME  TEMP    WIND        PRES
                       AIR SEA DIR/SP/G
                 (UTC) (F)     (DEG/KT/KT) (MB)
THOMAS PT LIGHT  1600   36 38  170/  9/  9 1032.2F
BALT KEY BRIDGE  1600   38     150/  6/  7 1031.3F
COVE POINT       1600   36     180/  6/  7 1032.6F
LEWISETTA        1600   38 42   90/  3/  4 1031.8F
SOLOMONS ISLAND  1600   37 40   90/  4/  5   N/A

$$





USA.gov is the U.S. government's official web portal to all federal, state and local government web resources and services.